Time,TemperatureF,DewpointF,PressureIn,WindDirection,WindDirectionDegrees,WindSpeedMPH,WindSpeedGustMPH,Humidity,HourlyPrecipIn,Conditions,Clouds,dailyrainin,SoftwareType,DateUTC
2013-04-15 00:02:00,40.0,36.0,29.93,SSE,157,0.0,0.0,86,-99.99,,,-99.99,,2013-04-15 07:02:00,
2013-04-15 00:42:00,40.0,36.0,29.93,SSE,157,0.0,1.0,87,-99.99,,,-99.99,,2013-04-15 07:42:00,
2013-04-15 00:53:00,40.0,36.0,29.93,SSE,157,0.0,0.0,87,-99.99,,,-99.99,,2013-04-15 07:53:00,
2013-04-15 01:02:00,40.0,37.0,29.93,SSE,157,0.0,0.0,90,-99.99,,,-99.99,,2013-04-15 08:02:00,
2013-04-15 01:11:00,40.0,37.0,29.93,SSE,157,0.0,0.0,90,-99.99,,,-99.99,,2013-04-15 08:11:00,
2013-04-15 01:21:00,40.0,38.0,29.93,SSE,157,0.0,1.0,91,-99.99,,,-99.99,,2013-04-15 08:21:00,
2013-04-15 01:32:00,41.0,39.0,29.93,SE,134,0.0,4.0,91,-99.99,,,-99.99,,2013-04-15 08:32:00,
2013-04-15 01:42:00,41.0,39.0,29.93,SE,134,0.0,4.0,91,-99.99,,,-99.99,,2013-04-15 08:42:00,
2013-04-15 01:51:00,41.0,38.0,29.93,SE,135,0.0,1.0,90,-99.99,,,-99.99,,2013-04-15 08:51:00,
2013-04-15 02:02:00,41.0,38.0,29.93,SE,135,0.0,2.0,90,-99.99,,,-99.99,,2013-04-15 09:02:00,
2013-04-15 02:12:00,41.0,38.0,29.93,SE,135,0.0,2.0,90,-99.99,,,-99.99,,2013-04-15 09:12:00,
2013-04-15 02:22:00,41.0,38.0,29.93,SSE,149,0.0,1.0,89,-99.99,,,-99.99,,2013-04-15 09:22:00,
2013-04-15 02:32:00,41.0,38.0,29.93,SSE,149,0.0,0.0,90,-99.99,,,-99.99,,2013-04-15 09:32:00,
2013-04-15 02:42:00,41.0,38.0,29.93,SSE,149,0.0,0.0,90,-99.99,,,-99.99,,2013-04-15 09:42:00,
2013-04-15 02:53:00,40.0,37.0,29.93,SSE,149,0.0,0.0,90,-99.99,,,-99.99,,2013-04-15 09:53:00,
2013-04-15 03:02:00,41.0,39.0,29.93,SSE,149,0.0,1.0,91,-99.99,,,-99.99,,2013-04-15 10:02:00,
2013-04-15 03:12:00,41.0,39.0,29.93,SSE,149,0.0,1.0,91,-99.99,,,-99.99,,2013-04-15 10:12:00,
2013-04-15 03:22:00,41.0,39.0,29.93,SSE,157,0.0,3.0,91,-99.99,,,-99.99,,2013-04-15 10:22:00,
2013-04-15 03:33:00,41.0,38.0,29.93,South,190,0.0,1.0,90,-99.99,,,-99.99,,2013-04-15 10:33:00,
2013-04-15 03:42:00,41.0,38.0,29.93,South,190,0.0,1.0,90,-99.99,,,-99.99,,2013-04-15 10:42:00,
2013-04-15 03:52:00,41.0,38.0,29.93,South,188,0.0,2.0,89,-99.99,,,-99.99,,2013-04-15 10:52:00,
2013-04-15 04:02:00,41.0,38.0,29.93,SSE,164,0.0,3.0,89,-99.99,,,-99.99,,2013-04-15 11:02:00,
2013-04-15 04:12:00,41.0,38.0,29.93,SSE,164,0.0,3.0,89,-99.99,,,-99.99,,2013-04-15 11:12:00,
2013-04-15 04:22:00,41.0,38.0,29.93,SSE,164,0.0,0.0,89,-99.99,,,-99.99,,2013-04-15 11:22:00,
2013-04-15 04:32:00,40.0,37.0,29.93,SSE,164,0.0,0.0,90,-99.99,,,-99.99,,2013-04-15 11:32:00,
2013-04-15 04:42:00,40.0,37.0,29.93,SSE,164,0.0,0.0,90,-99.99,,,-99.99,,2013-04-15 11:42:00,
2013-04-15 04:52:00,40.0,37.0,29.93,SSE,164,0.0,1.0,90,-99.99,,,-99.99,,2013-04-15 11:52:00,
2013-04-15 05:03:00,40.0,37.0,29.93,SSE,164,0.0,0.0,90,-99.99,,,-99.99,,2013-04-15 12:03:00,
2013-04-15 05:12:00,40.0,37.0,29.93,SSE,164,0.0,0.0,90,-99.99,,,-99.99,,2013-04-15 12:12:00,
2013-04-15 05:22:00,40.0,38.0,29.93,SSE,164,0.0,0.0,91,-99.99,,,-99.99,,2013-04-15 12:22:00,
2013-04-15 05:33:00,39.0,37.0,29.93,SSE,164,0.0,0.0,91,-99.99,,,-99.99,,2013-04-15 12:33:00,
2013-04-15 05:42:00,39.0,37.0,29.93,SSE,164,0.0,0.0,91,-99.99,,,-99.99,,2013-04-15 12:42:00,
2013-04-15 05:53:00,39.0,37.0,29.93,SSE,164,0.0,0.0,92,-99.99,,,-99.99,,2013-04-15 12:53:00,
2013-04-15 06:02:00,38.0,36.0,29.94,SSE,164,0.0,0.0,92,-99.99,,,-99.99,,2013-04-15 13:02:00,
2013-04-15 06:12:00,38.0,36.0,29.94,SSE,164,0.0,0.0,92,-99.99,,,-99.99,,2013-04-15 13:12:00,
2013-04-15 06:22:00,38.0,36.0,29.94,SSE,164,0.0,0.0,92,-99.99,,,-99.99,,2013-04-15 13:22:00,
2013-04-15 06:32:00,39.0,37.0,29.94,SSE,164,0.0,0.0,93,-99.99,,,-99.99,,2013-04-15 13:32:00,
2013-04-15 06:42:00,39.0,37.0,29.94,SSE,164,0.0,0.0,93,-99.99,,,-99.99,,2013-04-15 13:42:00,
2013-04-15 06:52:00,39.0,37.0,29.94,SSE,164,0.0,0.0,93,-99.99,,,-99.99,,2013-04-15 13:52:00,
2013-04-15 07:03:00,39.0,37.0,29.94,SSE,164,0.0,0.0,93,-99.99,,,-99.99,,2013-04-15 14:03:00,
2013-04-15 07:12:00,39.0,37.0,29.94,SSE,164,0.0,0.0,93,-99.99,,,-99.99,,2013-04-15 14:12:00,
2013-04-15 07:21:00,39.0,37.0,29.95,SSE,164,0.0,0.0,93,-99.99,,,-99.99,,2013-04-15 14:21:00,
2013-04-15 07:32:00,40.0,38.0,29.96,SSE,164,0.0,0.0,93,-99.99,,,-99.99,,2013-04-15 14:32:00,
2013-04-15 07:43:00,40.0,38.0,29.96,SSE,164,0.0,0.0,93,-99.99,,,-99.99,,2013-04-15 14:43:00,
2013-04-15 07:54:00,40.0,38.0,29.96,SSE,164,0.0,0.0,94,-99.99,,,-99.99,,2013-04-15 14:54:00,
2013-04-15 08:02:00,41.0,39.0,29.97,SSE,164,0.0,0.0,93,-99.99,,,-99.99,,2013-04-15 15:02:00,
2013-04-15 08:12:00,41.0,39.0,29.97,SSE,164,0.0,0.0,93,-99.99,,,-99.99,,2013-04-15 15:12:00,
2013-04-15 08:22:00,41.0,39.0,29.97,SSE,164,0.0,0.0,93,-99.99,,,-99.99,,2013-04-15 15:22:00,
2013-04-15 08:34:00,41.0,39.0,29.98,SSE,164,0.0,1.0,92,-99.99,,,-99.99,,2013-04-15 15:34:00,
2013-04-15 08:43:00,41.0,39.0,29.98,SSE,164,0.0,1.0,92,-99.99,,,-99.99,,2013-04-15 15:43:00,
2013-04-15 08:53:00,42.0,40.0,29.98,SSE,164,0.0,2.0,91,-99.99,,,-99.99,,2013-04-15 15:53:00,
2013-04-15 09:03:00,42.0,40.0,29.99,SE,125,0.0,2.0,91,-99.99,,,-99.99,,2013-04-15 16:03:00,
2013-04-15 09:12:00,42.0,40.0,29.99,SE,125,0.0,2.0,91,-99.99,,,-99.99,,2013-04-15 16:12:00,
2013-04-15 09:23:00,46.0,42.0,29.99,ESE,117,0.0,2.0,86,-99.99,,,-99.99,,2013-04-15 16:23:00,
2013-04-15 09:32:00,45.0,39.0,29.99,SW,235,1.0,2.0,80,-99.99,,,-99.99,,2013-04-15 16:32:00,
2013-04-15 09:42:00,45.0,39.0,29.99,SW,235,1.0,2.0,80,-99.99,,,-99.99,,2013-04-15 16:42:00,
2013-04-15 09:53:00,45.0,39.0,29.99,WSW,245,2.0,3.0,79,-99.99,,,-99.99,,2013-04-15 16:53:00,
2013-04-15 10:02:00,46.0,40.0,29.99,ENE,78,1.0,3.0,80,-99.99,,,-99.99,,2013-04-15 17:02:00,
2013-04-15 10:12:00,46.0,40.0,29.99,ENE,78,1.0,3.0,80,-99.99,,,-99.99,,2013-04-15 17:12:00,
2013-04-15 10:21:00,46.0,39.0,30.00,NE,46,2.0,5.0,76,-99.99,,,-99.99,,2013-04-15 17:21:00,
2013-04-15 10:32:00,46.0,39.0,30.00,North,8,1.0,6.0,75,-99.99,,,-99.99,,2013-04-15 17:32:00,
2013-04-15 10:42:00,46.0,39.0,30.00,North,8,1.0,6.0,75,-99.99,,,-99.99,,2013-04-15 17:42:00,
2013-04-15 10:52:00,47.0,39.0,30.00,North,355,0.0,6.0,75,-99.99,,,-99.99,,2013-04-15 17:52:00,
2013-04-15 11:02:00,47.0,38.0,30.01,NNE,28,1.0,6.0,71,-99.99,,,-99.99,,2013-04-15 18:02:00,
2013-04-15 11:22:00,47.0,38.0,30.01,NNW,344,3.0,5.0,70,-99.99,,,-99.99,,2013-04-15 18:22:00,
2013-04-15 11:32:00,48.0,38.0,30.01,NE,42,1.0,5.0,68,-99.99,,,-99.99,,2013-04-15 18:32:00,
2013-04-15 11:42:00,48.0,38.0,30.01,NE,42,1.0,5.0,68,-99.99,,,-99.99,,2013-04-15 18:42:00,
2013-04-15 11:51:00,48.0,38.0,30.01,WSW,257,0.0,4.0,69,-99.99,,,-99.99,,2013-04-15 18:51:00,
2013-04-15 12:01:00,49.0,38.0,30.01,NW,322,2.0,6.0,65,-99.99,,,-99.99,,2013-04-15 19:01:00,
2013-04-15 12:11:00,49.0,38.0,30.01,NW,322,2.0,6.0,65,-99.99,,,-99.99,,2013-04-15 19:11:00,
2013-04-15 12:21:00,48.0,37.0,30.02,NW,307,3.0,6.0,66,-99.99,,,-99.99,,2013-04-15 19:21:00,
2013-04-15 12:42:00,48.0,37.0,30.02,ENE,61,2.0,6.0,66,-99.99,,,-99.99,,2013-04-15 19:42:00,
2013-04-15 12:59:00,49.0,37.0,30.02,NNE,28,1.0,7.0,64,-99.99,,,-99.99,,2013-04-15 19:59:00,
2013-04-15 13:11:00,51.0,38.0,30.02,NE,52,2.0,5.0,61,-99.99,,,-99.99,,2013-04-15 20:11:00,
2013-04-15 13:21:00,51.0,38.0,30.02,NNE,15,0.0,2.0,61,-99.99,,,-99.99,,2013-04-15 20:21:00,
2013-04-15 13:32:00,51.0,37.0,30.02,ENE,59,1.0,4.0,58,-99.99,,,-99.99,,2013-04-15 20:32:00,
2013-04-15 13:42:00,51.0,37.0,30.02,ENE,59,1.0,4.0,58,-99.99,,,-99.99,,2013-04-15 20:42:00,
2013-04-15 13:52:00,51.0,38.0,30.02,NW,306,2.0,8.0,60,-99.99,,,-99.99,,2013-04-15 20:52:00,
2013-04-15 14:02:00,51.0,38.0,30.02,WSW,246,0.0,5.0,60,-99.99,,,-99.99,,2013-04-15 21:02:00,
2013-04-15 14:11:00,51.0,38.0,30.02,WSW,246,0.0,5.0,60,-99.99,,,-99.99,,2013-04-15 21:11:00,
2013-04-15 14:21:00,51.0,38.0,30.02,NNW,340,1.0,9.0,62,-99.99,,,-99.99,,2013-04-15 21:21:00,
2013-04-15 14:32:00,53.0,38.0,30.03,NW,309,2.0,9.0,56,-99.99,,,-99.99,,2013-04-15 21:32:00,
2013-04-15 14:42:00,53.0,38.0,30.03,NW,309,2.0,9.0,56,-99.99,,,-99.99,,2013-04-15 21:42:00,
2013-04-15 14:53:00,54.0,37.0,30.03,NW,322,3.0,10.0,52,-99.99,,,-99.99,,2013-04-15 21:53:00,
2013-04-15 15:02:00,54.0,38.0,30.03,West,274,1.0,10.0,55,-99.99,,,-99.99,,2013-04-15 22:02:00,
2013-04-15 15:12:00,54.0,38.0,30.03,West,274,1.0,10.0,55,-99.99,,,-99.99,,2013-04-15 22:12:00,
2013-04-15 15:22:00,55.0,39.0,30.03,West,271,3.0,11.0,55,-99.99,,,-99.99,,2013-04-15 22:22:00,
2013-04-15 15:32:00,54.0,36.0,30.03,North,350,3.0,12.0,51,-99.99,,,-99.99,,2013-04-15 22:32:00,
2013-04-15 15:42:00,54.0,36.0,30.03,North,350,3.0,12.0,51,-99.99,,,-99.99,,2013-04-15 22:42:00,
2013-04-15 15:52:00,54.0,36.0,30.03,NW,313,3.0,10.0,51,-99.99,,,-99.99,,2013-04-15 22:52:00,
2013-04-15 16:02:00,54.0,36.0,30.03,NNW,337,3.0,12.0,50,-99.99,,,-99.99,,2013-04-15 23:02:00,
2013-04-15 16:11:00,54.0,36.0,30.03,NNW,337,3.0,12.0,50,-99.99,,,-99.99,,2013-04-15 23:11:00,
2013-04-15 16:22:00,55.0,36.0,30.03,NW,326,5.0,9.0,48,-99.99,,,-99.99,,2013-04-15 23:22:00,
2013-04-15 16:32:00,55.0,36.0,30.03,NW,326,5.0,9.0,48,-99.99,,,-99.99,,2013-04-15 23:32:00,
2013-04-15 16:41:00,55.0,36.0,30.03,NW,326,5.0,9.0,48,-99.99,,,-99.99,,2013-04-15 23:41:00,
2013-04-15 16:52:00,55.0,35.0,30.03,NNE,21,4.0,8.0,46,-99.99,,,-99.99,,2013-04-15 23:52:00,
2013-04-15 17:01:00,54.0,35.0,30.03,WNW,292,5.0,11.0,48,-99.99,,,-99.99,,2013-04-16 00:01:00,
2013-04-15 17:11:00,54.0,35.0,30.03,WNW,292,5.0,11.0,48,-99.99,,,-99.99,,2013-04-16 00:11:00,
2013-04-15 17:21:00,54.0,33.0,30.04,North,358,4.0,7.0,45,-99.99,,,-99.99,,2013-04-16 00:21:00,
2013-04-15 17:31:00,54.0,35.0,30.05,West,269,2.0,9.0,48,-99.99,,,-99.99,,2013-04-16 00:31:00,
2013-04-15 17:41:00,54.0,35.0,30.05,West,269,2.0,9.0,48,-99.99,,,-99.99,,2013-04-16 00:41:00,
2013-04-15 17:52:00,54.0,37.0,30.05,NW,309,0.0,9.0,52,-99.99,,,-99.99,,2013-04-16 00:52:00,
2013-04-15 18:02:00,55.0,38.0,30.05,NNE,27,2.0,5.0,53,-99.99,,,-99.99,,2013-04-16 01:02:00,
2013-04-15 18:11:00,53.0,38.0,30.06,NW,307,1.0,10.0,56,-99.99,,,-99.99,,2013-04-16 01:11:00,
2013-04-15 18:21:00,53.0,38.0,30.06,NW,307,1.0,10.0,56,-99.99,,,-99.99,,2013-04-16 01:21:00,
2013-04-15 18:32:00,53.0,38.0,30.06,NW,307,1.0,10.0,56,-99.99,,,-99.99,,2013-04-16 01:32:00,
2013-04-15 18:42:00,53.0,38.0,30.06,NW,307,1.0,10.0,56,-99.99,,,-99.99,,2013-04-16 01:42:00,
2013-04-15 18:52:00,53.0,37.0,30.07,NE,36,4.0,9.0,54,-99.99,,,-99.99,,2013-04-16 01:52:00,
2013-04-15 19:01:00,52.0,38.0,30.07,NE,38,4.0,12.0,59,-99.99,,,-99.99,,2013-04-16 02:01:00,
2013-04-15 19:12:00,52.0,38.0,30.07,NE,38,4.0,12.0,59,-99.99,,,-99.99,,2013-04-16 02:12:00,
2013-04-15 19:21:00,52.0,38.0,30.07,NE,38,4.0,12.0,59,-99.99,,,-99.99,,2013-04-16 02:21:00,
2013-04-15 19:32:00,47.0,38.0,30.09,NNE,27,4.0,11.0,70,-99.99,,,-99.99,,2013-04-16 02:32:00,
2013-04-15 19:42:00,47.0,38.0,30.09,NNE,27,4.0,11.0,70,-99.99,,,-99.99,,2013-04-16 02:42:00,
2013-04-15 19:52:00,47.0,38.0,30.09,NNE,27,4.0,11.0,70,-99.99,,,-99.99,,2013-04-16 02:52:00,
2013-04-15 20:02:00,44.0,38.0,30.10,ENE,68,0.0,2.0,80,-99.99,,,-99.99,,2013-04-16 03:02:00,
2013-04-15 20:11:00,44.0,38.0,30.10,ENE,68,0.0,2.0,80,-99.99,,,-99.99,,2013-04-16 03:11:00,
2013-04-15 20:22:00,44.0,38.0,30.10,ENE,68,0.0,2.0,80,-99.99,,,-99.99,,2013-04-16 03:22:00,
2013-04-15 20:33:00,43.0,38.0,30.10,NE,53,0.0,3.0,82,-99.99,,,-99.99,,2013-04-16 03:33:00,
2013-04-15 20:43:00,43.0,38.0,30.10,NE,53,0.0,3.0,82,-99.99,,,-99.99,,2013-04-16 03:43:00,
2013-04-15 20:52:00,43.0,38.0,30.11,NE,53,0.0,1.0,82,-99.99,,,-99.99,,2013-04-16 03:52:00,
2013-04-15 21:02:00,42.0,38.0,30.11,NE,53,0.0,0.0,84,-99.99,,,-99.99,,2013-04-16 04:02:00,
2013-04-15 21:12:00,42.0,38.0,30.11,NE,53,0.0,0.0,84,-99.99,,,-99.99,,2013-04-16 04:12:00,
2013-04-15 21:23:00,42.0,38.0,30.12,NE,53,0.0,0.0,86,-99.99,,,-99.99,,2013-04-16 04:23:00,
2013-04-15 21:32:00,42.0,38.0,30.13,NE,53,0.0,0.0,87,-99.99,,,-99.99,,2013-04-16 04:32:00,
2013-04-15 21:42:00,42.0,38.0,30.13,NE,53,0.0,0.0,87,-99.99,,,-99.99,,2013-04-16 04:42:00,
2013-04-15 21:52:00,42.0,38.0,30.13,NE,53,0.0,0.0,87,-99.99,,,-99.99,,2013-04-16 04:52:00,
2013-04-15 22:02:00,42.0,39.0,30.14,NE,53,0.0,1.0,88,-99.99,,,-99.99,,2013-04-16 05:02:00,
2013-04-15 22:11:00,42.0,39.0,30.14,NE,53,0.0,1.0,88,-99.99,,,-99.99,,2013-04-16 05:11:00,
2013-04-15 22:22:00,42.0,39.0,30.14,NE,53,0.0,1.0,88,-99.99,,,-99.99,,2013-04-16 05:22:00,
2013-04-15 22:32:00,41.0,38.0,30.14,NE,53,0.0,2.0,89,-99.99,,,-99.99,,2013-04-16 05:32:00,
2013-04-15 22:42:00,41.0,38.0,30.14,NE,53,0.0,2.0,89,-99.99,,,-99.99,,2013-04-16 05:42:00,
2013-04-15 22:52:00,41.0,38.0,30.14,NE,53,0.0,0.0,90,-99.99,,,-99.99,,2013-04-16 05:52:00,
2013-04-15 23:02:00,41.0,38.0,30.14,NE,53,0.0,0.0,90,-99.99,,,-99.99,,2013-04-16 06:02:00,
2013-04-15 23:12:00,41.0,38.0,30.14,NE,53,0.0,0.0,90,-99.99,,,-99.99,,2013-04-16 06:12:00,
2013-04-15 23:21:00,40.0,38.0,30.15,NE,53,0.0,0.0,91,-99.99,,,-99.99,,2013-04-16 06:21:00,
2013-04-15 23:32:00,40.0,38.0,30.15,NE,53,0.0,0.0,91,-99.99,,,-99.99,,2013-04-16 06:32:00,
2013-04-15 23:42:00,40.0,38.0,30.15,NE,53,0.0,0.0,91,-99.99,,,-99.99,,2013-04-16 06:42:00,
2013-04-15 23:52:00,40.0,38.0,30.15,NE,53,0.0,1.0,92,-99.99,,,-99.99,,2013-04-16 06:52:00,